[Iaude] MPEC S21: 2013 NX23 [a=2.15,e=0.54,i=17.0,H=18.6]

mpec at mpc.eps.harvard.edu mpec at mpc.eps.harvard.edu
Fri Sep 23 07:33:17 EDT 2016


M.P.E.C. 2016-S21                                Issued 2016 Sept. 23, 11:29 UT
 
     The Minor Planet Electronic Circulars contain information on unusual
         minor planets and routine data on comets.  They are published
    on behalf of Division F of the International Astronomical Union by the
          Minor Planet Center, Smithsonian Astrophysical Observatory,
                          Cambridge, MA 02138, U.S.A.

             Prepared using the Tamkin Foundation Computer Network

                              MPC at CFA.HARVARD.EDU
            URL http://www.minorplanetcenter.net/    ISSN 1523-6714


                                   2013 NX23
 
                           Revision to MPEC 2013-O21
 
Additional Observations:
     K13N23X  C2016 09 22.12959 18 32 13.36 -12 35 12.8          19.8 RoES021926
     K13N23X  C2016 09 22.13388 18 32 13.51 -12 35 08.7          19.3 RoES021926
     K13N23X  C2016 09 23.11777 18 32 51.10 -12 20 21.9          20.1 RoES021926
     K13N23X  C2016 09 23.12773 18 32 51.45 -12 20 12.9          19.5 RoES021926
     K13N23X  C2016 09 23.13204 18 32 51.59 -12 20 08.7          19.5 RoES021926
 
Observer details:
926 Tenagra II Observatory.  Observers M. Schwartz, P. R. Holvorcem.  Measurer
    M. Schwartz.  0.81-m f/7 Ritchey-Chretien + CCD.
 
First and last observations above in comparison with prediction:
Residuals in seconds of arc, reference and Delta-T
160922 926  7.6- 12.0-    160923 926  7.4- 11.9-    MPO289791   +0.0069 day
 
Orbital elements:
2013 NX23                                                Earth MOID = 0.2184 AU
Epoch 2016 July 31.0 TT = JDT 2457600.5                 MPC
M 318.83665              (2000.0)            P               Q
n   0.31345949     Peri.   98.23568     +0.69507727     -0.67763238
a   2.1462572      Node   304.82540     +0.48856845     +0.69029115
e   0.5382764      Incl.   17.01196     +0.52741677     +0.25359906
P   3.14           H   18.6           G   0.15           U   0
Residuals in seconds of arc
130715 106  0.8+  0.9-    130805 H21  0.2-  0.3+    130922 H21  0.1-  0.1-
130715 106  0.0   0.1+    130805 H21  0.3-  0.1+    130922 H21  0.1-  0.1-
130715 106  0.2+  0.6+    130805 H21  0.2-  0.4+    131022 926  0.1+  0.1+
130715 106  0.4+  0.6+    130805 H21  0.0   0.2+    131022 926  0.0   0.1-
130715 H36  0.7-  1.2+    130809 Z81  0.0   0.1+    131022 926  0.1+  0.3+
130715 H36  0.0   0.0     130809 Z81  0.2-  0.1+    131023 K90  0.9-  0.7+
130715 H36  0.2+  0.1+    130809 Z81  0.5+  0.1+    131023 K90  0.2+  0.9+
130716 F65  0.1+  0.1-    130812 Y00  0.0   0.3-    131023 K90  0.8-  0.9-
130716 F65  0.0   0.3+    130812 Y00  0.4-  0.4-    131023 K90  0.8-  0.4+
130716 106  0.0   0.0     130812 Y00  0.0   0.6-    131202 Z81  0.1+  0.3-
130716 106  0.1-  0.1+    130814 I41  0.2+  0.3+    131202 Z81  0.3+  0.1-
130717 106  0.5-  0.0     130814 I41  0.2+  0.4+    131202 Z81  0.1-  0.3-
130717 106  0.2+  0.0     130814 I41  0.2+  0.2+    131214 703  0.5-  0.8-
130717 J95  0.2-  0.2-    130815 I41  0.0   0.3+    131214 703  0.9+  0.5+
130717 J95  0.1+  0.1-    130815 I41  0.1-  0.2-    131214 703  0.8+  0.5+
130717 H21  0.3-  0.3+    130815 I41  0.1+  0.4+    131214 703  0.0   0.9+
130717 H21  0.6-  0.3+    130816 160  0.1+  0.3-    131220 K90  0.1+  0.1-
130717 H21  0.3-  0.0     130816 160  0.1+  0.3+    131220 K90  0.0   0.0
130717 H21  0.1+  0.1+    130816 160  0.4+  0.2+    131220 K90  0.3-  0.2-
130717 H21  0.1+  0.0     130818 160  0.2+  0.2+    131220 K90  0.2-  0.1+
130717 106  0.2+  0.2-    130818 160  0.0   0.2+    131226 703  0.2+  0.5+
130717 106  0.1-  0.1-    130818 160  0.1+  0.1+    131226 703  1.6-  0.5+
130719 106  0.2-  0.0     130819 H21  0.1+  0.2+    131226 703  0.0   0.3+
130719 106  0.2-  0.1+    130819 H21  0.1-  0.1+    131226 703  0.1+  0.9+
130719 106  0.2-  0.2+    130819 H21  0.1+  0.0     131226 D29  0.4-  0.0
130719 106  0.0   0.2-    130821 204  0.1-  0.2+    131226 D29  0.1-  0.1-
130719 106  0.6+  0.1-    130821 204  0.0   0.2+    131226 D29  0.2-  0.1+
130719 106  0.3-  0.8-    130821 204  0.1-  0.1-    131227 D29  0.0   0.1+
130719 807  0.3+  0.1+    130823 448  0.3+  0.0     131227 D29  0.1-  0.2+
130719 807  0.1-  0.0     130823 448  0.2-  0.0     131227 D29  0.3+  0.4-
130719 807  0.2-  0.1+    130823 448  0.1-  0.2-    131231 D29  0.5-  0.3-
130719 807  0.2-  0.2+    130826 H21  0.1-  0.2+    131231 D29  0.1-  0.0
130719 807  0.2-  0.1+    130826 H21  0.1-  0.4+    131231 D29  0.0   0.6+
130720 H21  0.2-  0.1-    130826 H21  0.0   0.1+    140104 K90  0.0   0.0
130720 H21  0.3-  0.1-    130827 H21  0.1+  0.0     140104 K90  0.2+  0.3-
130720 H21  0.2-  0.1+    130827 H21  0.0   0.1+    140104 K90  0.1+  0.1-
130720 H21  0.0   0.0     130827 H21  0.3+  0.1+    140107 703  0.5+  0.1+
130721 I93  1.1+  0.2+    130827 H21  0.3+  0.0     140107 703  0.4+  0.3+
130721 I93  0.0   0.5+    130827 H21  0.3+  0.1+    140107 703  0.2-  0.4+
130721 I93  0.5-  0.2+    130830 H21  0.1-  0.1+    140107 703  0.2-  0.3+
130728 H21  0.1+  0.1+    130830 H21  0.1+  0.0     140112 H45  0.2+  0.2-
130728 H21  0.4-  0.4-    130830 H21  0.1+  0.1+    140112 H45  0.6+  0.1-
130728 H21  0.1-  0.2+    130903 H21  0.1+  0.1-    140112 H45  0.3+  0.3-
130728 H21  0.1+  0.5+    130903 H21  0.0   0.0     140112 H45  0.7+  0.4+
130729 H21  0.1-  0.0     130903 H21  0.2+  0.2-    140112 H45  0.3+  0.2-
130729 H21  0.0   0.2+    130903 H21  0.3+  0.3-    140112 H45  0.5+  0.2-
130729 H21  0.0   0.2+    130903 H21  0.2+  0.0     140122 807  0.1+  0.2-
130729 H21  0.0   0.2+    130904 160  0.2+  0.0     140122 807  0.3+  0.5-
130731 204  0.0   0.2-    130904 160  0.2+  0.1-    140122 807  0.4+  0.2-
130731 204  0.0   0.2-    130904 160  0.1-  0.2+    140126 F51  0.1-  0.2+
130731 204  0.1+  0.2+    130905 A24  0.2+  1.7-    140126 F51  0.1-  0.2+
130731 Y00  0.8-  0.2-    130905 A24  0.6+  1.2+    140126 F51  0.1-  0.0
130731 Y00  0.0   0.6-    130905 A24  0.3-  0.0     140126 F51  0.1-  0.1+
130731 Y00  0.4+  0.6-    130905 A24  0.5+  0.2+    140126 D29  0.3+  0.4-
130802 Y00  0.0   0.5-    130905 A24  0.5+  0.0     140126 D29  0.0   0.1-
130802 Y00  0.1-  1.0-    130905 H45  0.4-  0.4+    140126 D29  0.0   0.0
130802 Y00  0.3-  0.0     130905 H45  0.1+  0.1-    140202 703  0.4+  0.1-
130802 H21  0.1-  0.0     130905 H45  0.2+  0.1-    140202 703  0.5+  0.5-
130802 H21  0.2-  0.1-    130905 H45  0.2+  0.2-    140202 703  0.5-  0.3-
130802 H21  0.0   0.2+    130905 H45  0.2-  0.3-    140202 703  0.5-  0.7+
130802 H21  0.1-  0.1-    130905 H45  0.0   0.1+    140228 H21  0.4+  0.9-
130803 160  0.1+  0.1-    130906 K90  0.4+  0.4+    140228 H21  0.9+  0.6-
130803 160  0.1+  0.1-    130906 K90  0.1-  0.3-    140228 H21  0.7+  0.5-
130803 160  0.3-  0.1+    130906 K90  0.7+  0.6+    140331 H21  0.9+  0.3-
130803 Y00  0.6-  0.1+    130906 K90  0.3-  1.5-    140331 H21  0.2-  0.3+
130803 Y00  0.5-  0.3-    130908 K90  1.1-  0.9+    160922 926  0.3-  0.1+
130803 Y00  0.3-  0.1-    130908 K90  0.2-  0.2-    160922 926  0.2-  0.3+
130804 H21  0.1-  0.0     130908 K90  1.9-  0.6-    160923 926  0.0   0.0
130804 H21  0.2-  0.0     130922 H21  0.1-  0.2-    160923 926  0.1-  0.1-
130804 H21  0.1-  0.1+    130922 H21  0.2+  0.2-    160923 926  0.3-  0.2+
130804 H21  0.2-  0.2+    130922 H21  0.2+  0.0

Ephemeris:
2013 NX23                a,e,i = 2.15, 0.54, 17                  q = 0.9910
Date    TT    R. A. (2000) Decl.     Delta      r     Elong.  Phase     V
2016 08 24    18 37 50.4 -20 13 54   0.7401  1.5770   127.8    30.4    20.2
...
2016 09 08    18 28 45.9 -16 11 57   0.7590  1.4646   111.2    39.9    20.4
...
2016 09 16    18 29 25.0 -14 07 56   0.7717  1.4050   103.7    44.0    20.5
...
2016 09 22    18 32 08.8 -12 37 03   0.7805  1.3609    98.6    46.8    20.5
2016 09 23    18 32 46.6 -12 22 01   0.7818  1.3536    97.8    47.3    20.5
2016 09 24    18 33 27.3 -12 07 00   0.7831  1.3463    97.1    47.7    20.5
...
2016 09 30    18 38 30.0 -10 37 06   0.7896  1.3031    92.6    50.2    20.5
...
2016 10 08    18 47 40.4 -08 35 59   0.7944  1.2472    87.3    53.2    20.5
...
2016 10 23    19 11 27.3 -04 34 54   0.7877  1.1506    79.5    58.2    20.5

A. U. Tomatic                (C) Copyright 2016 MPC           M.P.E.C. 2016-S21




More information about the Iaude mailing list